Regional Weather Roundup
Issued by NWS

Home | Current Version | Previous Version | Text Only | Print | Product List | Glossary Off
Versions: 1 2 3 4 5 6 7 8 9 10 11 12 13 14 15 16 17 18 19 20 21 22 23 24 25 26 27 28 29 30 31 32 33 34 35 36 37 38 39 40 41 42 43 44 45 46 47 48 49 50

000
ASUS45 KTFX 020119
RWRMT
MONTANA HOURLY WEATHER ROUNDUP
NATIONAL WEATHER SERVICE GREAT FALLS MT
619 PM MST SUN MAR 1 2015

NOTE: "FAIR" INDICATES FEW OR NO CLOUDS BELOW 12000 FEET WITH NO
SIGNIFICANT WEATHER AND/OR OBSTRUCTIONS TO VISIBILITY.

* THESE STATIONS ARE NOT UNDER NWS QUALITY CONTROL. THEY DO NOT
   REPORT WEATHER SUCH AS PRECIPITATION OR FOG.

MTZ001>007-043-020200-
WEST OF THE DIVIDE
CITY           SKY/WX    TMP DP  RH WIND       PRES   REMARKS
KALISPELL      CLOUDY    32  12  43 S3        30.01F
MISSOULA       MOCLDY    34   9  35 W3        30.02F
BUTTE          MOCLDY    30   7  38 S8        29.97F WCI  22
MULLAN PASS    CLOUDY    27   1  32 SW3       29.91F
* ANACONDA     PTCLDY    28  10  47 N/A        N/A
* ESSEX        N/A       29   6  37 N/A        N/A
* EUREKA APT   MOCLDY    37  14  39 E7        30.01F WCI  32
* HAMILTON APT MOCLDY    37   5  26 N2        29.98F
* LIBBY APT    MOCLDY    36   7  30 CALM      30.01F
* LINCOLN      N/A       32   1  26 W3G9       N/A
* LOOKOUT PASS N/A       33   5  30 S1         N/A
* POLSON       N/A       32  10  40 S1         N/A
* RONAN APT    CLOUDY    36  16  44 NW5        N/A   WCI  32
* SEELEY LAKE  N/A       34   3  27 SE2G7      N/A
* THOMP F APT  CLOUDY    32  -6  19 S4G9       N/A
$$

MTZ008-052>055-020200-
SOUTHWEST MONTANA
CITY           SKY/WX    TMP DP  RH WIND       PRES   REMARKS
BOZEMAN        PTCLDY    28   5  37 S3        30.04F
DILLON         PTCLDY    30   0  27 NE6       29.98F WCI  24
* W YELLOWSTON PTCLDY    27  -4  25 SW3        N/A
* THREE FORKS  PTCLDY    30   3  31 N/A        N/A
* BOULDER HILL N/A       24   1  37 S12        N/A   WCI  13
* MONIDA PASS  N/A       27  -2  28 S4G9       N/A
* RAYNOLDS PAS N/A       20   5  52 S7         N/A   WCI  11
* WHITEHALL    N/A       32   3  29 E6         N/A   WCI  26
* WISE RIVER   N/A       29   3  33 SE10G15    N/A   WCI  20
$$

MTZ009>010-012-014-046-048-049-054-020200-
EAST SLOPES AND CENTRAL MONTANA
CITY           SKY/WX    TMP DP  RH WIND       PRES   REMARKS
CUT BANK       CLOUDY    30  14  51 S9        29.93F WCI  22
GREAT FALLS    CLOUDY    30  10  43 S14       29.98F WCI  19
HELENA         CLOUDY    32   9  38 SE9       30.02F WCI  24
* CONRAD       CLOUDY    36  12  37 SE12G17    N/A   WCI  28
* DEARBORN     N/A       35   8  32 S12G20     N/A   WCI  27
* EAST GLACIER N/A       28   6  39 W14G24     N/A   WCI  17
* MONARCH      N/A       25  -3  29 S7G15      N/A   WCI  17
* PENDROY      N/A       29  15  56 S8G14      N/A   WCI  21
* ROGERS PASS  N/A       25   6  44 SE10G19    N/A   WCI  15
* SWEET GRASS  N/A       32  10  40 SW14G19    N/A   WCI  22
* WHITE SULPH  N/A       23   3  42 SE5G14     N/A   WCI  16
$$

MTZ011-013-016-021-035-040-045-047-050-051-020200-
NORTH CENTRAL MONTANA
CITY           SKY/WX    TMP DP  RH WIND       PRES   REMARKS
HAVRE          PTCLDY    27  10  49 E6        30.06F WCI  20
LEWISTOWN      PTCLDY    25   7  46 SE7       30.03F WCI  17
* N BAR RANCH  CLEAR     27   3  35 S10       30.05F WCI  18
* CHINOOK      PTCLDY    27  14  58 E10G17    30.10F WCI  18
* FORT BENTON  MOCLDY    30  14  51 E13G20    30.04F WCI  20
* MALTA APT    N/A       27  10  49 N/A        N/A
* CHESTER      N/A       30  16  56 SE11G19    N/A   WCI  21
* DENTON       N/A       26   5  40 E6         N/A   WCI  19
* GEYSER       N/A       25   7  46 SE4        N/A
* JUDITH GAP   N/A       24   6  46 SE11       N/A   WCI  13
* LOMA         N/A       31  15  51 SE12       N/A   WCI  22
$$

MTZ017>020-022>027-061-062-020200-
NORTHEAST MONTANA
CITY           SKY/WX    TMP DP  RH WIND       PRES   REMARKS
GLASGOW        CLEAR     23  10  57 SE9       30.21F WCI  13
GLENDIVE       CLEAR     21   9  60 S5        30.27F WCI  14
JORDAN         PTCLDY    25  10  53 SE6       30.19F WCI  18
SIDNEY         CLEAR     19  12  74 CALM      30.31F
WOLF POINT     MOCLDY    25  10  53 S5        30.25F WCI  19
* BEAVER HILL  N/A       19   8  62 N/A        N/A
* CIRCLE       N/A       25  12  58 N/A        N/A
* LINDSAY DVD  N/A       18   8  65 S4         N/A
* NAVAJO       N/A       18   5  57 SW4        N/A
* PLENTYWOOD A CLEAR     21   3  45 CALM      30.24F
* POPLAR APT   CLEAR     25   9  50 S5        30.26F WCI  19
* SACO         N/A       26   9  48 SE6        N/A   WCI  19
* SCOBEY APT   PTCLDY    21   3  45 N/A        N/A
$$

MTZ028>042-056>058-020200-
SOUTHCENTRAL AND SOUTHEAST MONTANA
CITY           SKY/WX    TMP DP  RH WIND       PRES   REMARKS
BAKER          FAIR      16   7  67 W6        30.25F WCI   7
BILLINGS       FAIR      30   1  29 SW9       30.12F WCI  22
LIVINGSTON     CLEAR     28   7  41 CALM      30.03F
MILES CITY     CLEAR     23   9  55 E6        30.24F WCI  16
* BIG TIMBER A CLEAR     25   3  38 E5        30.06F WCI  19
* FORSYTH APT  PTCLDY    25  10  53 E5        30.21F WCI  19
* LAUREL APT   CLEAR     30   3  31 N/A        N/A
* ROUNDUP APT  CLEAR     30   0  27 N/A        N/A
* ALZADA       N/A       19   8  62 N2         N/A
* HYSHAM       N/A       23   6  48 E7         N/A   WCI  15
* LAME DEER    N/A       19   7  59 E7         N/A   WCI  10
* REED POINT   N/A       29   6  37 SE4        N/A
* ROSCOE HILL  N/A       21   2  43 SW2        N/A
$$

REGIONAL REPORTS...DAKOTAS
CITY           SKY/WX    TMP DP  RH WIND       PRES   REMARKS
WILLISTON      CLEAR     10   3  73 CALM      30.28F
DICKINSON      PTCLDY    19  10  68 SW3       30.26S
BEACH          MOCLDY    12   7  80 S3        30.27S
CROSBY         CLEAR      7   3  83 SW9       30.28S WCI  -6
TIOGA          CLEAR      5   3  91 W3        30.29S
WATFORD CITY   CLEAR     16  10  77 SW7       30.27S WCI   6
BISMARCK       CLEAR     19   9  65 NW7       30.35R WCI  10
GRAND FORKS    CLEAR     10   3  73 W8        30.31R WCI  -2
FARGO          PTCLDY    18   9  68 NW10      30.33R WCI   6
BUFFALO SD     CLEAR     19   9  65 NW7       30.20S WCI  10
RAPID CITY     CLEAR     19   9  65 N8        30.29R WCI   9
$$

REGIONAL REPORTS...WYOMING/IDAHO/WASHINGTON
CITY           SKY/WX    TMP DP  RH WIND       PRES   REMARKS
GILLETTE       CLEAR     18   7  62 CALM      30.18S
SHERIDAN       CLEAR     19   9  65 SE5       30.16F WCI  12
CODY           CLEAR     23  14  68 SE8       30.08F WCI  14
YELLOWSTONE LA CLEAR     12  -4  48 CALM      30.00F
SALMON         CLEAR     32  10  40 CALM      29.99F
MULLAN PASS    CLOUDY    27   1  32 SW3       29.91S
SAND POINT     CLOUDY    36  18  48 CALM      30.03F
SPOKANE        CLOUDY    43  12  28 S3        30.00F
$$

REGIONAL REPORTS...ALBERTA
CITY           SKY/WX    TMP DP  RH WIND       PRES   REMARKS
CALGARY        MOCLDY    27  18  69 S8        29.81F WCI  19
LETHBRIDGE     MOCLDY    30  21  69 S10       29.89F WCI  21
MEDICINE HAT   PTCLDY    28  19  69 S8        29.98F WCI  20
EDMONTON       FAIR      23  14  68 SE15      29.85F WCI  10
WATERTON GATE  N/A       28  10  47 SW17G26    N/A   WCI  16
CARDSTON       N/A       28  14  56 S5         N/A   WCI  22
MILK RIVER     N/A       32  18  56 S12        N/A   WCI  23
$$

REGIONAL REPORTS...SASKATCHEWAN
CITY           SKY/WX    TMP DP  RH WIND       PRES   REMARKS
SWIFT CURRENT  CLEAR     14   5  67 SE12      30.08F
REGINA         N/A        3   1  91 S7        30.22F WCI  -9
VAL MARIE      N/A       23  12  63 S12        N/A   WCI  11
ASSINIBOIA     N/A       12   5  73 S7         N/A   WCI   1
CORONACH       N/A       19  10  68 E5         N/A   WCI  12

$$



USA.gov is the U.S. government's official web portal to all federal, state and local government web resources and services.